NT2C Weather Reports


Display with metric or nautical units.
time (UTC)temp
F
wind
direction
speed
MPH
gust
MPH
rain 1hr
in
rain 24hr
in
rain mn
in
humidity
%
barometer
mb
20221204215514 43 60 0.0 1.0 0.00 0.00 0.00 56 1015.0
20221204215014 43 60 0.0 1.0 0.00 0.00 0.00 55 1015.1
20221204214514 43 103 0.0 1.0 0.00 0.00 0.00 54 1015.1
20221204214013 44 104 0.0 2.0 0.00 0.00 0.00 53 1015.0
20221204213513 44 103 0.0 2.0 0.00 0.00 0.00 52 1015.0
20221204213014 45 113 0.0 2.0 0.00 0.00 0.00 52 1015.0
20221204212512 45 101 1.0 4.0 0.00 0.00 0.00 51 1015.1
20221204212013 45 107 0.0 4.0 0.00 0.00 0.00 52 1015.1
20221204211518 45 112 1.0 4.0 0.00 0.00 0.00 52 1015.1
20221204211012 45 107 2.0 5.0 0.00 0.00 0.00 51 1015.2
20221204210511 46 98 2.0 5.0 0.00 0.00 0.00 51 1015.1
20221204210016 46 76 3.0 7.0 0.00 0.00 0.00 50 1015.1
20221204205509 46 107 2.0 7.0 0.00 0.00 0.00 50 1015.3
20221204205010 46 115 2.0 4.0 0.00 0.00 0.00 50 1015.3
20221204204509 46 103 1.0 4.0 0.00 0.00 0.00 50 1015.4
20221204204008 46 122 1.0 5.0 0.00 0.00 0.00 50 1015.5
20221204203508 46 80 3.0 5.0 0.00 0.00 0.00 49 1015.5
20221204203008 47 113 0.0 4.0 0.00 0.00 0.00 50 1015.4
20221204202508 46 105 1.0 4.0 0.00 0.00 0.00 49 1015.6
20221204202007 46 91 2.0 5.0 0.00 0.00 0.00 51 1015.7
20221204201508 46 110 2.0 5.0 0.00 0.00 0.00 50 1015.7
20221204201008 46 104 2.0 3.0 0.00 0.00 0.00 49 1015.8
20221204200508 46 46 1.0 5.0 0.00 0.00 0.00 51 1015.6
20221204200009 46 99 2.0 5.0 0.00 0.00 0.00 50 1015.6
20221204195507 46 62 2.0 4.0 0.00 0.00 0.00 51 1015.6
20221204195008 46 47 2.0 5.0 0.00 0.00 0.00 52 1015.6
20221204194506 46 103 2.0 5.0 0.00 0.00 0.00 50 1015.6
20221204194006 46 94 3.0 5.0 0.00 0.00 0.00 51 1015.7
20221204193506 46 103 2.0 5.0 0.00 0.00 0.00 51 1015.7
20221204193006 46 51 2.0 5.0 0.00 0.00 0.00 51 1015.7
20221204192506 46 92 1.0 4.0 0.00 0.00 0.00 51 1015.7
20221204192005 47 103 1.0 4.0 0.00 0.00 0.00 51 1015.7
20221204191506 47 98 1.0 4.0 0.00 0.00 0.00 50 1015.7
20221204191005 47 229 1.0 2.0 0.00 0.00 0.00 51 1015.5
20221204190504 46 259 0.0 6.0 0.00 0.00 0.00 51 1015.4
20221204190004 46 129 2.0 6.0 0.00 0.00 0.00 51 1015.5
20221204185503 46 74 2.0 5.0 0.00 0.00 0.00 51 1015.5
20221204185004 47 108 1.0 5.0 0.00 0.00 0.00 51 1015.5
20221204184502 47 118 2.0 5.0 0.00 0.00 0.00 48 1015.6
20221204184001 47 206 1.0 3.0 0.00 0.00 0.00 50 1015.6
20221204183502 46 266 0.0 5.0 0.00 0.00 0.00 50 1015.5
20221204183004 46 137 1.0 5.0 0.00 0.00 0.00 52 1015.6
20221204182502 45 108 1.0 6.0 0.00 0.00 0.00 52 1015.8
20221204182003 46 43 3.0 6.0 0.00 0.00 0.00 51 1015.9
20221204181501 46 96 1.0 4.0 0.00 0.00 0.00 52 1015.8
20221204181001 45 146 1.0 4.0 0.00 0.00 0.00 53 1015.9
20221204180600 45 95 2.0 4.0 0.00 0.00 0.00 53 1015.9
20221204180502 45 91 2.0 4.0 0.00 0.00 0.00 53 1015.8
20221204180100 45 101 1.0 7.0 0.00 0.00 0.00 54 1015.7
20221204175559 45 88 3.0 7.0 0.00 0.00 0.00 53 1016.0
20221204175100 44 114 2.0 4.0 0.00 0.00 0.00 53 1016.0
20221204174600 44 86 1.0 3.0 0.00 0.00 0.00 54 1016.1
20221204174102 44 53 1.0 3.0 0.00 0.00 0.00 55 1016.1
20221204173559 44 60 1.0 4.0 0.00 0.00 0.00 54 1016.1
20221204173107 44 105 2.0 4.0 0.00 0.00 0.00 55 1016.4
20221204172603 43 70 2.0 4.0 0.00 0.00 0.00 55 1016.4
20221204172059 43 206 1.0 5.0 0.00 0.00 0.00 55 1016.4
20221204171559 43 51 3.0 6.0 0.00 0.00 0.00 56 1016.5
20221204171058 43 70 2.0 5.0 0.00 0.00 0.00 56 1016.5
20221204170558 43 131 1.0 5.0 0.00 0.00 0.00 57 1016.6
20221204170106 43 116 1.0 5.0 0.00 0.00 0.00 57 1016.7
20221204165558 44 108 1.0 4.0 0.00 0.00 0.00 57 1016.6
20221204165057 43 194 2.0 4.0 0.00 0.00 0.00 57 1016.7
20221204164603 43 120 1.0 4.0 0.00 0.00 0.00 57 1016.7
20221204164058 43 105 1.0 4.0 0.00 0.00 0.00 59 1016.7
20221204163557 43 135 1.0 4.0 0.00 0.00 0.00 59 1016.7
20221204163057 43 95 0.0 3.0 0.00 0.00 0.00 60 1016.9
20221204162658 42 232 1.0 6.0 0.00 0.00 0.00 59 1016.9
20221204162056 42 105 2.0 5.0 0.00 0.00 0.00 60 1017.1
20221204161558 42 41 1.0 5.0 0.00 0.00 0.00 59 1017.2
20221204161056 42 104 0.0 4.0 0.00 0.00 0.00 60 1017.4
20221204160558 41 103 2.0 4.0 0.00 0.00 0.00 60 1017.5
20221204160123 41 57 0.0 6.0 0.00 0.00 0.00 60 1017.6
20221204155556 42 89 1.0 6.0 0.00 0.04 0.00 60 1017.6
20221204155055 41 109 0.0 5.0 0.00 0.04 0.00 60 1017.8
20221204154555 41 21 2.0 5.0 0.00 0.04 0.00 59 1017.8
20221204154056 41 313 0.0 4.0 0.00 0.04 0.00 60 1018.0
20221204153558 41 119 1.0 4.0 0.00 0.04 0.00 61 1017.9
20221204153055 41 63 2.0 4.0 0.00 0.04 0.00 61 1018.0
20221204152556 40 57 1.0 8.0 0.00 0.04 0.00 62 1017.9
20221204152055 40 69 3.0 8.0 0.00 0.04 0.00 60 1018.1
20221204151602 40 106 1.0 7.0 0.00 0.04 0.00 61 1018.0
20221204151054 40 83 3.0 7.0 0.00 0.04 0.00 60 1018.1
20221204150553 40 87 3.0 7.0 0.00 0.04 0.00 61 1018.1
20221204150059 39 24 3.0 7.0 0.00 0.04 0.00 61 1018.2
20221204145553 39 354 4.0 8.0 0.00 0.12 0.00 61 1018.2
20221204145054 39 61 4.0 8.0 0.00 0.12 0.00 61 1018.2
20221204144552 39 63 5.0 10.0 0.00 0.12 0.00 61 1018.1
20221204144054 39 39 5.0 10.0 0.00 0.12 0.00 61 1018.2
20221204143556 39 51 3.0 8.0 0.00 0.12 0.00 63 1018.1
20221204143058 39 65 4.0 8.0 0.00 0.12 0.00 63 1018.0
20221204142552 38 34 5.0 10.0 0.00 0.12 0.00 62 1018.2
20221204142053 39 27 4.0 10.0 0.00 0.12 0.00 63 1018.2
20221204141554 38 82 3.0 9.0 0.00 0.12 0.00 63 1018.1
20221204141052 38 44 4.0 9.0 0.00 0.12 0.00 64 1018.1
20221204140551 38 40 5.0 9.0 0.00 0.12 0.00 64 1018.1
20221204140051 38 61 4.0 10.0 0.00 0.12 0.00 63 1018.2
20221204135551 38 50 5.0 10.0 0.00 0.21 0.00 64 1018.2
20221204135051 38 63 5.0 11.0 0.00 0.21 0.00 64 1018.3
20221204134550 38 52 6.0 11.0 0.00 0.21 0.00 63 1018.2
20221204134052 38 54 5.0 10.0 0.00 0.21 0.00 64 1018.1
20221204133549 37 39 5.0 7.0 0.00 0.21 0.00 65 1018.3
20221204133102 37 55 3.0 6.0 0.00 0.21 0.00 65 1018.3
20221204132549 37 77 2.0 4.0 0.00 0.21 0.00 65 1018.3
20221204132049 37 58 0.0 5.0 0.00 0.21 0.00 65 1018.3
20221204131549 37 84 1.0 7.0 0.00 0.21 0.00 66 1018.3
20221204131049 37 65 3.0 7.0 0.00 0.21 0.00 65 1018.2
20221204130548 37 46 3.0 6.0 0.00 0.21 0.00 65 1018.2
20221204130050 37 51 0.0 3.0 0.00 0.21 0.00 66 1018.3
20221204125548 37 112 0.0 4.0 0.00 0.25 0.00 65 1018.4
20221204125048 37 85 1.0 5.0 0.00 0.25 0.00 65 1018.4
20221204124547 37 42 3.0 6.0 0.00 0.25 0.00 65 1018.3
20221204124047 37 32 2.0 6.0 0.00 0.25 0.00 65 1018.3
20221204123546 36 46 3.0 5.0 0.00 0.25 0.00 65 1018.3
20221204123052 36 51 3.0 5.0 0.00 0.25 0.00 66 1018.3
20221204122545 36 47 1.0 3.0 0.00 0.25 0.00 67 1018.2
20221204122047 36 65 0.0 5.0 0.00 0.25 0.00 66 1018.1
20221204121544 36 49 2.0 5.0 0.00 0.25 0.00 66 1018.2
20221204121043 36 68 2.0 4.0 0.00 0.25 0.00 66 1018.1
20221204120541 36 74 0.0 5.0 0.00 0.25 0.00 66 1018.0
20221204120040 36 69 2.0 5.0 0.00 0.25 0.00 66 1017.9
20221204115539 36 89 2.0 9.0 0.00 0.25 0.00 66 1017.7
20221204115039 37 351 3.0 9.0 0.00 0.25 0.00 66 1017.7
20221204114538 37 60 0.0 5.0 0.00 0.25 0.00 66 1017.6
20221204114041 37 129 1.0 5.0 0.00 0.25 0.00 66 1017.7
20221204113542 37 46 1.0 6.0 0.00 0.25 0.00 66 1017.6
20221204113041 37 61 3.0 6.0 0.00 0.25 0.00 66 1017.4
20221204112535 37 46 2.0 6.0 0.00 0.25 0.00 66 1017.3
20221204112034 37 20 3.0 6.0 0.00 0.25 0.00 66 1017.3
20221204111533 37 347 2.0 6.0 0.00 0.25 0.00 66 1017.3
20221204111034 37 58 2.0 6.0 0.00 0.25 0.00 65 1017.3
20221204110531 37 357 2.0 8.0 0.00 0.25 0.00 66 1017.3
20221204110044 38 55 2.0 8.0 0.00 0.25 0.00 65 1017.1
20221204105529 38 30 3.0 8.0 0.00 0.25 0.00 65 1017.0
20221204105027 38 27 2.0 6.0 0.00 0.25 0.00 65 1016.9
20221204104526 38 43 3.0 7.0 0.00 0.25 0.00 65 1016.9
20221204104024 38 54 3.0 7.0 0.00 0.25 0.00 65 1016.8
20221204103523 38 47 2.0 5.0 0.00 0.25 0.00 65 1016.8
20221204103022 38 46 1.0 5.0 0.00 0.25 0.00 65 1016.8
20221204102521 38 26 2.0 5.0 0.00 0.25 0.00 65 1016.8
20221204102023 38 347 0.0 5.0 0.00 0.25 0.00 65 1016.7
20221204101525 38 27 1.0 5.0 0.00 0.25 0.00 65 1016.7
20221204101019 38 23 1.0 5.0 0.00 0.25 0.00 65 1016.7
20221204100521 39 47 2.0 5.0 0.00 0.25 0.00 65 1016.7
20221204100017 39 63 1.0 6.0 0.00 0.25 0.00 64 1016.6
20221204095518 39 21 3.0 7.0 0.00 0.25 0.00 64 1016.6
20221204095015 39 333 2.0 7.0 0.00 0.25 0.00 64 1016.5
20221204094515 39 355 1.0 5.0 0.00 0.25 0.00 64 1016.6
20221204094014 39 67 1.0 7.0 0.00 0.25 0.00 64 1016.4
20221204093515 39 30 3.0 7.0 0.00 0.25 0.00 64 1016.4
20221204093014 40 8 2.0 9.0 0.00 0.25 0.00 64 1016.3
20221204092515 40 42 3.0 9.0 0.00 0.25 0.00 64 1016.3
20221204092013 40 53 2.0 6.0 0.00 0.25 0.00 64 1016.3
20221204091519 40 32 2.0 6.0 0.00 0.25 0.00 63 1016.1
20221204091011 40 343 2.0 10.0 0.00 0.25 0.00 63 1016.2
20221204090510 40 346 3.0 10.0 0.00 0.25 0.00 63 1016.2
20221204090014 40 23 2.0 9.0 0.00 0.25 0.00 63 1016.3
20221204085508 40 19 3.0 8.0 0.00 0.25 0.00 63 1016.1
20221204085010 41 309 2.0 8.0 0.00 0.25 0.00 62 1016.2
20221204084506 41 318 2.0 8.0 0.00 0.25 0.00 62 1016.4
20221204084005 41 341 3.0 13.0 0.00 0.25 0.00 62 1016.5
20221204083504 41 32 2.0 13.0 0.00 0.25 0.00 62 1016.4
20221204083004 41 335 3.0 8.0 0.00 0.25 0.00 62 1016.4
20221204082503 41 10 4.0 11.0 0.00 0.25 0.00 61 1016.5
20221204082003 41 32 5.0 11.0 0.00 0.25 0.00 61 1016.5
20221204081637 41 334 4.0 11.0 0.00 0.25 0.00 61 1016.4
20221204081001 41 283 3.0 12.0 0.00 0.25 0.00 61 1016.4
20221204080600 41 333 4.0 10.0 0.00 0.25 0.00 61 1016.5
20221204080059 42 278 2.0 10.0 0.00 0.25 0.00 61 1016.3
20221204075558 42 334 4.0 8.0 0.00 0.25 0.00 61 1016.4
20221204075102 42 22 2.0 7.0 0.00 0.25 0.00 60 1016.4
20221204074557 42 25 2.0 10.0 0.00 0.25 0.00 60 1016.2
20221204074055 42 148 3.0 10.0 0.00 0.25 0.00 60 1016.2
20221204073556 42 11 3.0 9.0 0.00 0.25 0.00 59 1016.2
20221204073058 42 34 4.0 8.0 0.00 0.25 0.00 59 1016.2
20221204072557 42 38 3.0 7.0 0.00 0.25 0.00 59 1016.1
20221204072053 42 79 2.0 7.0 0.00 0.25 0.00 59 1016.1
20221204071553 43 354 3.0 7.0 0.00 0.25 0.00 59 1016.0
20221204071051 43 27 2.0 8.0 0.00 0.25 0.00 59 1015.9
20221204070550 43 44 3.0 9.0 0.00 0.25 0.00 58 1015.7
20221204070054 43 20 4.0 9.0 0.00 0.25 0.00 58 1015.8
20221204065549 43 30 2.0 5.0 0.00 0.25 0.00 57 1015.7
20221204065048 43 345 2.0 5.0 0.00 0.25 0.00 57 1015.7
20221204064549 43 347 2.0 7.0 0.00 0.25 0.00 56 1015.7
20221204064047 44 47 3.0 7.0 0.00 0.25 0.00 56 1015.8
20221204063545 44 10 1.0 4.0 0.00 0.25 0.00 56 1015.7
20221204063046 44 42 1.0 5.0 0.00 0.25 0.00 56 1015.6
20221204062645 44 359 3.0 6.0 0.00 0.25 0.00 55 1015.6
20221204062043 44 328 2.0 8.0 0.00 0.25 0.00 55 1015.6
20221204061544 44 342 2.0 7.0 0.00 0.25 0.00 55 1015.6
20221204061042 45 8 2.0 7.0 0.00 0.25 0.00 55 1015.6
20221204060540 45 11 2.0 9.0 0.00 0.25 0.00 54 1015.8
20221204060038 45 315 3.0 9.0 0.00 0.25 0.00 54 1015.8
20221204055537 45 348 1.0 6.0 0.00 0.25 0.00 54 1015.7
20221204055036 45 295 2.0 6.0 0.00 0.25 0.00 54 1015.7
20221204054548 46 313 2.0 7.0 0.00 0.25 0.00 54 1015.8
20221204054035 46 238 3.0 7.0 0.00 0.25 0.00 54 1015.8
20221204053534 46 341 2.0 7.0 0.00 0.25 0.00 54 1015.8
20221204053054 46 51 3.0 11.0 0.00 0.25 0.00 53 1016.0
20221204052532 46 333 3.0 11.0 0.00 0.25 0.00 54 1016.1
20221204052032 46 12 1.0 9.0 0.00 0.25 0.00 53 1015.9
20221204051542 47 313 3.0 9.0 0.00 0.25 0.00 53 1015.8
20221204051031 47 310 3.0 11.0 0.00 0.25 0.00 52 1015.8
20221204050527 47 351 4.0 11.0 0.00 0.25 0.00 52 1015.8
20221204050026 48 341 4.0 15.0 0.00 0.25 0.00 52 1016.0
20221204045625 48 26 7.0 15.0 0.00 0.25 0.25 51 1016.0
20221204045025 48 319 4.0 8.0 0.00 0.25 0.25 52 1016.2
20221204044525 48 337 2.0 8.0 0.00 0.25 0.25 51 1016.2
20221204044025 48 6 3.0 8.0 0.00 0.25 0.25 51 1016.1
20221204043524 48 79 3.0 8.0 0.00 0.25 0.25 50 1016.1
20221204043027 49 5 3.0 11.0 0.00 0.25 0.25 50 1016.0
20221204042524 49 326 4.0 11.0 0.00 0.25 0.25 50 1016.0
20221204042023 49 309 4.0 13.0 0.00 0.25 0.25 51 1016.0
20221204041526 49 335 3.0 10.0 0.00 0.25 0.25 51 1016.0
20221204041026 49 278 3.0 7.0 0.00 0.25 0.25 52 1016.2
20221204040523 49 308 3.0 8.0 0.00 0.25 0.25 51 1016.1
20221204040022 50 350 4.0 8.0 0.00 0.25 0.25 51 1016.1
20221204035522 50 295 1.0 8.0 0.00 0.25 0.25 52 1016.0
20221204035021 50 279 2.0 8.0 0.00 0.25 0.25 51 1015.9
20221204034545 50 356 3.0 10.0 0.00 0.25 0.25 51 1015.8
20221204034021 50 333 3.0 11.0 0.00 0.25 0.25 51 1015.7
20221204033522 51 34 5.0 12.0 0.00 0.25 0.25 50 1015.6
20221204033021 51 321 5.0 12.0 0.00 0.25 0.25 51 1015.5
20221204032520 51 270 4.0 9.0 0.00 0.25 0.25 52 1015.6
20221204032023 51 317 5.0 10.0 0.00 0.25 0.25 51 1015.7
20221204031520 52 349 5.0 10.0 0.00 0.25 0.25 51 1015.8
20221204031020 52 341 4.0 11.0 0.00 0.25 0.25 51 1015.8
20221204030519 52 11 5.0 11.0 0.00 0.25 0.25 51 1015.8
20221204030019 52 56 2.0 8.0 0.00 0.25 0.25 53 1015.7
20221204025519 52 352 1.0 7.0 0.00 0.25 0.25 55 1015.7
20221204025019 53 77 2.0 9.0 0.00 0.25 0.25 53 1015.4
20221204024534 53 290 4.0 15.0 0.00 0.25 0.25 53 1015.2
20221204024018 53 321 5.0 15.0 0.00 0.25 0.25 53 1015.1
20221204023518 53 340 3.0 10.0 0.00 0.25 0.25 58 1014.9
20221204023016 53 266 2.0 7.0 0.00 0.25 0.25 61 1014.8
20221204022515 53 260 3.0 7.0 0.00 0.25 0.25 62 1014.9
20221204022015 54 321 2.0 7.0 0.00 0.25 0.25 65 1015.0
20221204021516 54 321 3.0 7.0 0.00 0.25 0.25 68 1015.0
20221204021015 54 26 1.0 3.0 0.00 0.25 0.25 75 1014.9
20221204020514 54 328 1.0 4.0 0.00 0.25 0.25 77 1014.8
20221204020014 54 46 1.0 4.0 0.00 0.25 0.25 82 1014.7
20221204015514 54 324 1.0 4.0 0.00 0.25 0.25 85 1014.7
20221204015014 55 347 0.0 4.0 0.00 0.25 0.25 86 1014.5
20221204014518 55 297 1.0 5.0 0.00 0.25 0.25 86 1014.5
20221204014015 55 274 2.0 5.0 0.00 0.25 0.25 87 1014.3
20221204013513 55 276 1.0 4.0 0.00 0.25 0.25 87 1014.2
20221204013015 55 276 1.0 3.0 0.00 0.25 0.25 87 1014.2
20221204012512 55 281 1.0 4.0 0.00 0.25 0.25 87 1014.1
20221204012012 56 292 1.0 4.0 0.00 0.25 0.25 87 1014.0
20221204011514 56 287 0.0 2.0 0.00 0.25 0.25 87 1013.9
20221204011012 56 286 1.0 3.0 0.00 0.25 0.25 87 1013.9
20221204010511 56 283 1.0 3.0 0.00 0.25 0.25 87 1013.8
20221204010012 56 283 1.0 4.0 0.00 0.25 0.25 86 1013.7
20221204005511 56 283 1.0 3.0 0.00 0.25 0.25 86 1013.6
20221204005011 56 243 1.0 3.0 0.00 0.25 0.25 85 1013.5
20221204004511 56 270 1.0 4.0 0.00 0.25 0.25 85 1013.4
20221204004011 57 271 2.0 4.0 0.00 0.25 0.25 85 1013.4
20221204003510 57 244 1.0 8.0 0.00 0.25 0.25 85 1013.2
20221204003016 57 243 2.0 8.0 0.00 0.25 0.25 85 1013.2
20221204002513 57 271 2.0 6.0 0.00 0.25 0.25 85 1013.2
20221204002010 57 237 2.0 6.0 0.00 0.25 0.25 84 1013.2
20221204001510 57 282 3.0 6.0 0.00 0.25 0.25 84 1013.0
20221204001012 57 220 2.0 6.0 0.00 0.25 0.25 84 1013.0
20221204000509 57 271 2.0 6.0 0.00 0.25 0.25 84 1012.9
20221204000017 57 231 2.0 9.0 0.00 0.25 0.25 84 1012.9
20221203235508 57 221 3.0 9.0 0.00 0.25 0.25 84 1012.8
20221203235010 57 282 1.0 6.0 0.00 0.25 0.25 83 1012.6
20221203234511 57 210 1.0 7.0 0.00 0.25 0.25 83 1012.4
20221203234008 58 250 3.0 6.0 0.00 0.25 0.25 83 1012.4
20221203233508 58 226 3.0 9.0 0.00 0.25 0.25 83 1012.3
20221203233008 58 233 3.0 7.0 0.00 0.25 0.25 83 1012.2
20221203232508 58 221 1.0 6.0 0.00 0.25 0.25 83 1012.1
20221203232008 58 235 1.0 6.0 0.00 0.25 0.25 82 1012.1
20221203231507 58 242 2.0 4.0 0.00 0.25 0.25 82 1012.1
20221203231012 58 212 1.0 5.0 0.00 0.25 0.25 82 1012.0
20221203230507 58 231 1.0 10.0 0.00 0.25 0.25 82 1012.0
20221203230007 58 241 4.0 10.0 0.00 0.25 0.25 82 1011.8
20221203225506 58 248 3.0 8.0 0.00 0.25 0.25 82 1011.8
20221203225006 58 189 4.0 8.0 0.00 0.25 0.25 81 1011.8
20221203224512 58 229 3.0 8.0 0.00 0.25 0.25 81 1011.7
20221203224005 59 203 2.0 8.0 0.00 0.25 0.25 81 1011.5
20221203223505 59 226 3.0 10.0 0.00 0.25 0.25 81 1011.4
20221203223005 59 238 5.0 10.0 0.00 0.25 0.25 81 1011.4
20221203222504 59 217 4.0 12.0 0.00 0.25 0.25 81 1011.3
20221203222003 59 230 5.0 12.0 0.00 0.25 0.25 80 1011.2
20221203221505 59 226 5.0 10.0 0.00 0.25 0.25 80 1011.1
20221203221004 59 226 4.0 10.0 0.00 0.25 0.25 80 1011.0
20221203220503 59 234 4.0 11.0 0.00 0.25 0.25 80 1010.9
20221203220002 59 205 5.0 11.0 0.00 0.25 0.25 80 1010.9